Knows.nl

Technical website intelligence, screenshots, and crawl history.

Full Index

Showing up to 100 newest rows before ID 4917566.

IDDomainStatusLast visitURL
4917564 yaislam.com 404 2026-08-30 20:16:09 https://yaislam.com/
4917563 indosurflife.com 200 2026-08-30 20:16:09 https://indosurflife.com/
4917562 motomanai.lt 200 2026-08-30 20:15:55 https://motomanai.lt/
4917560 rhiellenjoias.com.br 404 2026-08-30 20:15:42 https://rhiellenjoias.com.br/
4917559 www.themextemplates.com 200 2026-08-30 20:15:41 https://www.themextemplates.com/
4917558 www.pedelecforum.de 403 2026-08-30 20:15:41 https://www.pedelecforum.de/
4917555 3childrenandit.com 200 2026-08-30 20:14:39 https://3childrenandit.com/
4917554 ilahidinlet.com 404 2026-08-30 20:14:37 https://ilahidinlet.com/
4917553 fliwv.presidentang.com 404 2026-08-30 20:14:36 https://fliwv.presidentang.com/
4917552 qbuniversity.org 200 2026-08-30 20:14:34 https://qbuniversity.org/
4917551 paradies-escort.at 200 2026-08-30 20:14:31 https://paradies-escort.at/
4917550 puritys.me 404 2026-08-30 20:14:30 https://puritys.me/
4917549 steermylife.com 200 2026-08-30 20:14:28 https://steermylife.com/
4917548 jtpk9yu.zhalantun88.cn 404 2026-08-30 20:14:26 https://jtpk9yu.zhalantun88.cn/
4917547 usasmt.com 200 2026-08-30 20:13:33 https://usasmt.com/
4917546 gtafans.ru 200 2026-08-30 20:13:31 https://gtafans.ru/
4917544 ramayurved.blogspot.in 200 2026-08-30 20:13:17 https://ramayurved.blogspot.in/
4917543 autotestok.com 404 2026-08-30 20:13:15 https://autotestok.com/
4917542 split5.com 200 2026-08-30 20:13:15 https://split5.com/
4917541 websitevoormijnschildersbedrijf.nl 200 2026-08-30 20:13:01 https://websitevoormijnschildersbedrijf.nl/
4917540 www.edy4life.com 200 2026-08-30 20:12:38 https://www.edy4life.com/
4917539 dxz9.fujiuchi-chiro.com 404 2026-08-30 20:12:36 https://dxz9.fujiuchi-chiro.com/
4917537 5v0iin.sheiweng.com 444 2026-08-30 20:12:24 https://5v0iin.sheiweng.com/
4917536 7g2b.fujiuchi-chiro.com 404 2026-08-30 20:12:22 https://7g2b.fujiuchi-chiro.com/
4917535 5fpdx.qevra.cn 404 2026-08-30 20:12:22 https://5fpdx.qevra.cn/
4917534 guidants.com 200 2026-08-30 20:12:18 https://guidants.com/
4917533 hlh9xe7.huzhou33.cn 404 2026-08-30 20:12:18 https://hlh9xe7.huzhou33.cn/
4917532 costabravas.com 404 2026-08-30 20:11:30 https://costabravas.com/
4917530 simplypatiofurniture.com 200 2026-08-30 20:11:15 https://simplypatiofurniture.com/
4917529 citizen.it 200 2026-08-30 20:11:13 https://citizen.it/
4917527 immune-system-boosters.com 200 2026-08-30 20:10:59 https://immune-system-boosters.com/
4917526 webmienphi.vn 200 2026-08-30 20:10:22 https://webmienphi.vn/
4917525 findemode.fr 200 2026-08-30 20:10:18 https://findemode.fr/
4917524 galaxypink.com 200 2026-08-30 20:10:15 https://galaxypink.com/
4917523 greencare.es 200 2026-08-30 20:10:12 https://greencare.es/
4917522 8f9ce8552d2b33504e87a5677c663ca5.dp2024.meiguo123.cn 200 2026-08-30 20:09:57 https://8f9ce8552d2b33504e87a5677c663ca5.dp2024.meiguo123.cn/
4917520 www.gigsky.jp 200 2026-07-29 16:35:08 https://www.gigsky.jp/
4917519 stilingai.lt 200 2026-08-30 20:09:55 https://stilingai.lt/
4917518 referatikz.ru 200 2026-08-30 20:09:46 https://referatikz.ru/
4917517 njyhl.org 200 2026-08-30 20:09:37 https://njyhl.org/
4917516 eie2eg0i3.thedywa.cn 404 2026-08-30 20:09:23 https://eie2eg0i3.thedywa.cn/
4917515 nintendo-europe.com 200 2026-08-30 20:08:50 https://nintendo-europe.com/
4917514 k0nach3au.practiceing.com 404 2026-08-30 20:08:49 https://k0nach3au.practiceing.com/
4917513 mod.gov.ge 200 2026-08-30 20:08:47 https://mod.gov.ge/
4917512 kapito.com 200 2026-08-30 20:08:46 https://kapito.com/
4917511 fstctungbo.com 404 2026-08-30 20:08:45 https://fstctungbo.com/
4917510 www.dwdrums.com 200 2026-08-30 20:08:44 https://www.dwdrums.com/
4917509 hardware.fr 200 2026-08-30 20:08:41 https://hardware.fr/
4917508 0zk48o7.nunchun.com 404 2026-08-30 20:08:40 https://0zk48o7.nunchun.com/
4917507 artrush.ru 404 2026-08-30 20:08:40 https://artrush.ru/
4917506 7ebndd18.fujiuchi-chiro.com 404 2026-08-30 20:08:38 https://7ebndd18.fujiuchi-chiro.com/
4917505 9w21h8.nunzhui.com 404 2026-08-30 20:08:38 https://9w21h8.nunzhui.com/
4917500 stodeo.sharepoint.com 200 2026-08-30 20:08:38 https://stodeo.sharepoint.com/
4917499 www.bagbliss.com 200 2026-08-30 20:08:37 https://www.bagbliss.com/
4917498 eventandfestival.com 200 2026-08-30 20:08:22 https://eventandfestival.com/
4917497 www.hackthatphone.com 200 2026-08-30 20:08:11 https://www.hackthatphone.com/
4917496 49d3.qgshuj.com 404 2026-08-30 20:08:09 https://49d3.qgshuj.com/
4917495 vlog.pro 200 2026-08-30 20:08:09 https://vlog.pro/
4917494 www.cpx3demo.com 200 2026-08-30 20:08:07 https://www.cpx3demo.com/
4917493 quaran.to 200 2026-08-04 05:02:04 https://quaran.to/
4917492 sanleizhoucheng.hooshong.com 404 2026-08-30 20:08:05 https://sanleizhoucheng.hooshong.com/
4917491 whereandwhatintheworld.com 504 2026-08-30 20:08:03 https://whereandwhatintheworld.com/
4917490 www.taketora.co.jp 200 2026-08-30 20:08:01 https://www.taketora.co.jp/
4917489 juegosdepeinarymaquillar.com 404 2026-08-30 20:07:55 https://juegosdepeinarymaquillar.com/
4917488 ivatma.blogspot.com 404 2026-08-30 20:07:54 https://ivatma.blogspot.com/
4917487 brkyj.qinhuangdao88.cn 404 2026-08-30 20:07:40 https://brkyj.qinhuangdao88.cn/
4917486 khodroonline.niliblog.ir 404 2026-08-30 20:07:00 https://khodroonline.niliblog.ir/
4917484 cookortho.com 200 2026-08-30 20:06:54 https://cookortho.com/
4917483 huus-gstaad.top-hotels-switzerland.com 200 2026-08-30 20:06:54 https://huus-gstaad.top-hotels-switzerland.com/
4917482 referenceur.be 200 2026-08-30 20:06:52 https://referenceur.be/
4917481 hikorea.jp 200 2026-08-30 20:06:51 https://hikorea.jp/
4917480 sprayerpartsdepot.com 200 2026-08-30 20:06:24 https://sprayerpartsdepot.com/
4917479 zarchat.ir 404 2026-08-30 20:06:22 https://zarchat.ir/
4917478 hittingworld.com 200 2026-08-30 20:06:22 https://hittingworld.com/
4917477 allo-dechetterie.com 200 2026-08-30 20:06:21 https://allo-dechetterie.com/
4917476 yamoney.ru 404 2026-08-30 20:06:20 https://yamoney.ru/
4917475 bibl.salinc.ru 404 2026-08-30 20:06:20 https://bibl.salinc.ru/
4917474 fatfish.info 200 2026-08-30 20:06:19 https://fatfish.info/
4917473 25of.morere.cn 404 2026-08-30 20:06:17 https://25of.morere.cn/
4917472 dnwahyudi.com 200 2026-08-30 20:05:13 https://dnwahyudi.com/
4917471 459au.zheitao.com 404 2026-08-30 20:05:12 https://459au.zheitao.com/
4917470 time.qq.com 200 2026-08-30 20:05:12 https://time.qq.com/
4917469 italianchef.com 200 2026-08-30 20:05:09 https://italianchef.com/
4917467 hardlotion.com 200 2026-08-30 20:04:42 https://hardlotion.com/
4917465 e4xmdhc2.jixi66.cn 404 2026-08-30 20:04:40 https://e4xmdhc2.jixi66.cn/
4917464 benoliverart.blogspot.in 200 2026-08-30 20:03:57 https://benoliverart.blogspot.in/
4917463 evoluo.mx 200 2026-08-30 20:03:55 https://evoluo.mx/
4917461 anthemlocal.com 200 2026-08-30 20:03:51 https://anthemlocal.com/
4917460 www.ezydog.com 200 2026-08-30 20:03:44 https://www.ezydog.com/
4917459 elleraconte.com 200 2026-08-30 20:03:41 https://elleraconte.com/
4917458 zipwap.ru 404 2026-08-30 20:03:39 https://zipwap.ru/
4917457 laramieboomerang.com 451 2026-08-30 20:03:38 https://laramieboomerang.com/
4917456 javathinker.blog.ccidnet.com 404 2026-08-30 20:03:37 https://javathinker.blog.ccidnet.com/
4917455 dougaset.com 200 2026-08-30 20:03:20 https://dougaset.com/
4917454 port1x.pw 404 2026-08-30 20:03:17 https://port1x.pw/
4917453 mpt-reisen.de 200 2026-08-30 20:03:15 https://mpt-reisen.de/
4917452 jardiner-facile.fr 200 2026-08-30 20:03:13 https://jardiner-facile.fr/
4917450 penseempregos.com.br 200 2026-08-30 20:02:48 https://penseempregos.com.br/
4917448 anchel.nl 200 2026-08-30 20:02:28 https://anchel.nl/
4917447 traderstartpage.com 200 2026-08-30 20:02:28 https://traderstartpage.com/